User: anonymous   Login
Location: Miami, Florida
(25.6830°N, 80.1700°W)
Time: 18:24:56
(UTC-04:00)
Language:

Tiangong 2 - Orbit

View from above orbital plane
View from above orbital plane
View from above satellite
View from above satellite

Ground track
Ground track

The orbit data is extracted from the following two-line orbital elements,

1 41765U 16057A   17328.43177215  .00006593  00000-0  85095-4 0  9997
2 41765  42.7828 122.6827 0004379 281.9405 175.6629 15.59606003 67998
Epoch (UTC): 24 November 2017 10:21:45
Eccentricity: 0.0004379
inclination: 42.7828°
perigee height: 386 km
apogee height: 392 km
right ascension of ascending node: 122.6827°
argument of perigee: 281.9405°
revolutions per day: 15.59606003
mean anomaly at epoch: 175.6629°
orbit number at epoch: 6799

The dashed part of the orbit path shows where the satellite is in the earth's shadow,  

DLR